Dallas/Ft Worth, TX

1:17 PM CDT on August 23, 2017 (GMT -0500)
Dallas-Fort Worth International

Weather History for KDFW - December, 2012

Change the Weather History Date:

Monday, December 24, 2012

  Actual Average Record
Temperature  
Mean Temperature 42 °F 46 °F  
Max Temperature 50 °F 56 °F 88 °F (1955)
Min Temperature 33 °F 36 °F 7 °F (1983)
Degree Days  
Heating Degree Days 23 19  
Month to date heating degree days 251 420  
Since 1 July heating degree days 539 774  
Cooling Degree Days 0 0  
Month to date cooling degree days 28 0  
Year to date cooling degree days 3351 2752  
Moisture  
Dew Point 26 °F    
Average Humidity 53    
Maximum Humidity 69    
Minimum Humidity 36    
Precipitation  
Precipitation 0.00 in 0.09 in 1.41 in (1975)
Month to date precipitation 0.39 2.03  
Year to date precipitation 29.70 35.62  
Snow  
Snow 0.00 in 0.00 in 3.00 in (2009)
Month to date snowfall 0.1 0.2  
Since 1 July snowfall 0.1 0.2  
Snow Depth 0.00 in    
Sea Level Pressure  
Sea Level Pressure 29.92 in    
Wind  
Wind Speed 7 mph (North)    
Max Wind Speed 15 mph    
Max Gust Speed 18 mph    
Visibility 9 miles    
Events      
T = Trace of Precipitation, MM = Missing Value Source: NWS Daily Summary

Daily Weather History Graph

Daily Weather History Graph

Search for Another Location

Airport or City:

Trip Planner

Search our weather history database for the weather conditions in past years. The results will help you decide how hot, cold, wet, or windy it might be!

Date:

Astronomy

Dec. 24, 2012 Rise Set
Actual Time 7:28 AM CST 5:27 PM CST
Civil Twilight 7:01 AM CST 5:55 PM CST
Nautical Twilight 6:30 AM CST 6:25 PM CST
Astronomical Twilight 6:00 AM CST 6:56 PM CST
Moon 2:52 PM CST (12/24) 4:12 AM CST (12/24)
Length of Visible Light 10h 53m
Length of Day
9h 59m
Waxing Gibbous, 88% of the Moon is Illuminated
Dec 24
Waxing Gibbous
Dec 28
Full
Jan 4
Last Quarter
Jan 11
New
Jan 18
First Quarter

Hourly Weather History & Observations

Time (CST) Temp. Windchill Dew Point Humidity Pressure Visibility Wind Dir Wind Speed Gust Speed Precip Events Conditions
12:53 AM 43.0 °F 36.4 °F 27.0 °F 53% 29.92 in 10.0 mi NNW 12.7 mph - N/A   Clear
1:53 AM 41.0 °F 34.3 °F 27.0 °F 57% 29.94 in 10.0 mi NNW 11.5 mph - N/A   Clear
2:53 AM 39.0 °F 32.8 °F 26.1 °F 60% 29.94 in 10.0 mi NNW 9.2 mph - N/A   Clear
3:53 AM 36.0 °F 29.6 °F 25.0 °F 64% 29.94 in 10.0 mi NNW 8.1 mph - N/A   Partly Cloudy
4:53 AM 36.0 °F 29.6 °F 25.0 °F 64% 29.95 in 10.0 mi NNW 8.1 mph - N/A   Mostly Cloudy
5:53 AM 36.0 °F 29.0 °F 25.0 °F 64% 30.00 in 10.0 mi NW 9.2 mph - N/A   Partly Cloudy
6:53 AM 34.0 °F 25.0 °F 24.1 °F 67% 30.01 in 9.0 mi NNW 12.7 mph - N/A   Partly Cloudy
7:53 AM 33.1 °F 24.9 °F 24.1 °F 70% 30.01 in 6.0 mi NNW 10.4 mph - N/A   Haze
8:53 AM 35.1 °F 26.9 °F 24.1 °F 64% 30.02 in 7.0 mi NNW 11.5 mph - N/A   Partly Cloudy
9:53 AM 37.9 °F 31.5 °F 25.0 °F 60% 30.04 in 7.0 mi North 9.2 mph - N/A   Scattered Clouds
10:53 AM 41.0 °F 37.1 °F 25.0 °F 53% 30.04 in 7.0 mi North 5.8 mph - N/A   Scattered Clouds
11:53 AM 44.1 °F 41.5 °F 25.0 °F 47% 30.00 in 9.0 mi North 4.6 mph - N/A   Scattered Clouds
12:53 PM 46.9 °F - 25.0 °F 42% 29.94 in 10.0 mi NNE 5.8 mph - N/A   Mostly Cloudy
1:53 PM 48.0 °F - 26.1 °F 42% 29.89 in 10.0 mi Calm Calm - N/A   Mostly Cloudy
2:53 PM 50.0 °F - 26.1 °F 39% 29.89 in 9.0 mi WNW 3.5 mph - N/A   Mostly Cloudy
3:53 PM 50.0 °F - 25.0 °F 38% 29.88 in 9.0 mi NNE 5.8 mph - N/A   Overcast
4:53 PM 48.0 °F - 26.1 °F 42% 29.87 in 9.0 mi North 5.8 mph - N/A   Overcast
5:53 PM 45.0 °F 41.8 °F 26.1 °F 48% 29.85 in 10.0 mi NNE 5.8 mph - N/A   Overcast
6:53 PM 44.1 °F 40.8 °F 27.0 °F 51% 29.85 in 10.0 mi NNE 5.8 mph - N/A   Overcast
7:53 PM 45.0 °F 41.2 °F 27.0 °F 49% 29.84 in 10.0 mi NNE 6.9 mph - N/A   Overcast
8:53 PM 45.0 °F 41.2 °F 28.0 °F 52% 29.83 in 10.0 mi NNE 6.9 mph - N/A   Overcast
9:53 PM 43.0 °F 40.3 °F 28.0 °F 56% 29.82 in 10.0 mi NNE 4.6 mph - N/A   Overcast
10:53 PM 44.1 °F 41.5 °F 28.9 °F 55% 29.81 in 9.0 mi NE 4.6 mph - N/A   Overcast
11:53 PM 46.0 °F 43.9 °F 28.0 °F 50% 29.80 in 10.0 mi NNE 4.6 mph - N/A   Overcast